Aurora, OR

11:22 PM PST on December 08, 2016 (GMT -0800)
Aurora State

Weather History for KUAO - February, 2013

Change the Weather History Date:

Saturday, February 16, 2013

  Actual Average Record
Temperature  
Mean Temperature 44 °F -  
Max Temperature 52 °F - 64 °F (2015)
Min Temperature 36 °F - 25 °F (2006)
Degree Days  
Heating Degree Days 21    
Month to date heating degree days 332  
Since 1 July heating degree days 2862  
Cooling Degree Days 0    
Month to date cooling degree days 0  
Year to date cooling degree days 0  
Moisture  
Dew Point 40 °F    
Average Humidity 80    
Maximum Humidity 100    
Minimum Humidity 59    
Precipitation  
Precipitation 0.03 in - 1.30 in (1958)
Month to date precipitation 0.50  
Year to date precipitation 2.51  
Sea Level Pressure  
Sea Level Pressure 30.26 in    
Wind  
Wind Speed 4 mph (SSW)    
Max Wind Speed 14 mph    
Max Gust Speed 22 mph    
Visibility 6 miles    
Events Fog , Rain    
T = Trace of Precipitation, MM = Missing Value Source: NWS Daily Summary

Daily Weather History Graph

Daily Weather History Graph

Search for Another Location

Airport or City:

Trip Planner

Search our weather history database for the weather conditions in past years. The results will help you decide how hot, cold, wet, or windy it might be!

Date:

Astronomy

Feb. 16, 2013 Rise Set
Actual Time 7:10 AM PST 5:40 PM PST
Civil Twilight 6:40 AM PST 6:10 PM PST
Nautical Twilight 6:05 AM PST 6:45 PM PST
Astronomical Twilight 5:31 AM PST 7:19 PM PST
Moon 10:06 AM PST (2/16) 12:05 AM PST (2/16)
Length of Visible Light 11h 30m
Length of Day
10h 30m
Waxing Crescent, 40% of the Moon is Illuminated
Feb 16
Waxing Crescent
Feb 17
First Quarter
Feb 25
Full
Mar 4
Last Quarter
Mar 11
New

Hourly Weather History & Observations

Time (PST) Temp. Windchill Dew Point Humidity Pressure Visibility Wind Dir Wind Speed Gust Speed Precip Events Conditions
12:53 AM 39.9 °F - 39.0 °F 97% 30.25 in 3.0 mi Calm Calm - N/A   Clear
1:00 AM 39.2 °F - 39.2 °F 100% 30.25 in 1.5 mi Calm Calm - N/A   Clear
1:02 AM 39.2 °F - 39.2 °F 100% 30.25 in 0.8 mi Calm Calm - N/A   Mist
1:18 AM 37.4 °F - 37.4 °F 100% 30.25 in 1.2 mi Calm Calm - N/A   Partly Cloudy
1:28 AM 37.4 °F - 37.4 °F 100% 30.25 in 0.8 mi Calm Calm - N/A   Mist
1:36 AM 37.4 °F - 37.4 °F 100% 30.25 in 1.0 mi Calm Calm - N/A   Mist
1:44 AM 37.4 °F - 37.4 °F 100% 30.24 in 1.2 mi Calm Calm - N/A   Clear
1:47 AM 37.4 °F - 37.4 °F 100% 30.24 in 3.0 mi Calm Calm - N/A   Clear
1:53 AM 37.9 °F - 37.9 °F 100% 30.25 in 3.0 mi Calm Calm - N/A   Clear
2:09 AM 39.2 °F 37.0 °F 39.2 °F 100% 30.24 in 1.8 mi South 3.5 mph - N/A   Clear
2:21 AM 37.4 °F 34.9 °F 37.4 °F 100% 30.24 in 0.8 mi South 3.5 mph - N/A   Clear
2:53 AM 37.9 °F 35.5 °F 37.0 °F 97% 30.24 in 0.8 mi SSE 3.5 mph - N/A   Clear
2:59 AM 37.4 °F 34.9 °F 37.4 °F 100% 30.24 in 3.0 mi SSE 3.5 mph - N/A   Partly Cloudy
3:09 AM 37.4 °F - 37.4 °F 100% 30.24 in 1.8 mi Calm Calm - N/A   Scattered Clouds
3:15 AM 37.4 °F - 37.4 °F 100% 30.24 in 0.8 mi Calm Calm - N/A   Mostly Cloudy
3:25 AM 37.4 °F - 37.4 °F 100% 30.24 in 2.0 mi Calm Calm - N/A   Mostly Cloudy
3:34 AM 39.2 °F 35.9 °F 39.2 °F 100% 30.24 in 4.0 mi SSW 4.6 mph - N/A   Overcast
3:41 AM 39.2 °F 35.0 °F 39.2 °F 100% 30.24 in 1.8 mi SSW 5.8 mph - N/A   Overcast
3:53 AM 39.0 °F 34.8 °F 39.0 °F 100% 30.24 in 0.8 mi SSW 5.8 mph - N/A   Overcast
4:08 AM 39.2 °F 37.0 °F 39.2 °F 100% 30.23 in 0.2 mi South 3.5 mph - N/A Fog Fog
4:53 AM 39.9 °F - 39.9 °F 100% 30.25 in 0.2 mi Calm Calm - N/A Fog Fog
5:35 AM 39.2 °F - 39.2 °F 100% 30.26 in 0.5 mi Calm Calm - N/A Fog Fog
5:53 AM 41.0 °F - 41.0 °F 100% 30.27 in 0.8 mi Calm Calm - N/A   Mist
6:09 AM 41.0 °F - 41.0 °F 100% 30.27 in 1.0 mi Calm Calm - N/A   Mist
6:19 AM 41.0 °F 38.0 °F 41.0 °F 100% 30.27 in 3.0 mi South 4.6 mph - N/A   Overcast
6:53 AM 41.0 °F 39.0 °F 41.0 °F 100% 30.27 in 5.0 mi South 3.5 mph - N/A   Overcast
7:23 AM 41.0 °F - 41.0 °F 100% 30.28 in 6.0 mi Calm Calm - N/A   Overcast
7:53 AM 42.1 °F 39.2 °F 41.0 °F 96% 30.28 in 6.0 mi SE 4.6 mph - N/A   Overcast
8:19 AM 42.8 °F 41.1 °F 42.8 °F 100% 30.28 in 7.0 mi SSE 3.5 mph - N/A   Overcast
8:42 AM 42.8 °F 41.1 °F 42.8 °F 100% 30.28 in 7.0 mi South 3.5 mph - N/A   Overcast
8:53 AM 43.0 °F 41.3 °F 43.0 °F 100% 30.29 in 10.0 mi SW 3.5 mph - N/A   Overcast
9:34 AM 44.6 °F 40.7 °F 42.8 °F 93% 30.29 in 10.0 mi SW 6.9 mph - N/A   Overcast
9:43 AM 44.6 °F 40.7 °F 42.8 °F 93% 30.29 in 10.0 mi SW 6.9 mph - N/A   Overcast
9:53 AM 45.0 °F 41.8 °F 43.0 °F 93% 30.29 in 10.0 mi SW 5.8 mph - N/A   Overcast
10:31 AM 46.4 °F 43.5 °F 42.8 °F 87% 30.29 in 10.0 mi SSW 5.8 mph - N/A   Overcast
10:42 AM 46.4 °F 43.5 °F 42.8 °F 87% 30.29 in 10.0 mi SSW 5.8 mph - N/A   Overcast
10:53 AM 46.9 °F - 43.0 °F 86% 30.29 in 10.0 mi SW 8.1 mph - N/A   Overcast
11:21 AM 46.4 °F 42.9 °F 42.8 °F 87% 30.29 in 10.0 mi SSW 6.9 mph - N/A   Overcast
11:53 AM 48.9 °F - 44.1 °F 83% 30.29 in 10.0 mi SSW 9.2 mph - N/A   Overcast
12:53 PM 48.9 °F - 43.0 °F 80% 30.27 in 10.0 mi SW 8.1 mph - 0.00 in Rain Light Rain
1:03 PM 51.8 °F - 44.6 °F 76% 30.26 in 10.0 mi SW 10.4 mph - 0.00 in   Overcast
1:53 PM 48.0 °F - 44.1 °F 86% 30.25 in 9.0 mi WSW 4.6 mph - 0.03 in Rain Light Rain
2:37 PM 51.8 °F - 42.8 °F 71% 30.24 in 10.0 mi WSW 6.9 mph - 0.00 in   Overcast
2:53 PM 51.1 °F - 42.1 °F 71% 30.25 in 10.0 mi WSW 8.1 mph - 0.00 in   Overcast
3:53 PM 51.1 °F - 37.0 °F 59% 30.25 in 10.0 mi WSW 11.5 mph 21.9 mph N/A   Scattered Clouds
4:53 PM 50.0 °F - 37.9 °F 63% 30.25 in 10.0 mi West 4.6 mph - N/A   Mostly Cloudy
5:53 PM 46.0 °F 42.5 °F 37.0 °F 71% 30.26 in 10.0 mi West 6.9 mph - N/A   Clear
6:53 PM 44.1 °F 41.5 °F 37.0 °F 76% 30.27 in 10.0 mi WSW 4.6 mph - N/A   Clear
7:53 PM 42.1 °F - 37.0 °F 82% 30.28 in 10.0 mi Calm Calm - N/A   Overcast
8:53 PM 42.1 °F - 37.0 °F 82% 30.30 in 10.0 mi Calm Calm - N/A   Mostly Cloudy
9:53 PM 37.9 °F - 36.0 °F 93% 30.30 in 10.0 mi Calm Calm - N/A   Scattered Clouds
10:53 PM 37.9 °F - 36.0 °F 93% 30.30 in 10.0 mi Calm Calm - N/A   Scattered Clouds
11:53 PM 37.0 °F - 35.1 °F 93% 30.30 in 10.0 mi Calm Calm - N/A   Scattered Clouds